Time,TemperatureF,DewpointF,PressureIn,WindDirection,WindDirectionDegrees,WindSpeedMPH,WindSpeedGustMPH,Humidity,HourlyPrecipIn,Conditions,Clouds,dailyrainin,SoftwareType,DateUTC
2013-05-01 00:04:00,60.0,54.0,30.11,SE,136,0.0,3.0,81,0.00,,,0.00,weatherlink.com 1.10,2013-05-01 04:04:00,
2013-05-01 00:19:00,59.8,54.0,30.11,ENE,67,0.0,2.0,81,0.00,,,0.00,weatherlink.com 1.10,2013-05-01 04:19:00,
2013-05-01 00:34:00,59.5,54.0,30.11,SSE,161,0.0,3.0,81,0.00,,,0.00,weatherlink.com 1.10,2013-05-01 04:34:00,
2013-05-01 00:49:00,59.4,54.0,30.12,South,175,0.0,4.0,82,0.00,,,0.00,weatherlink.com 1.10,2013-05-01 04:49:00,
2013-05-01 01:04:00,59.2,54.0,30.12,SSE,157,1.0,3.0,82,0.00,,,0.00,weatherlink.com 1.10,2013-05-01 05:04:00,
2013-05-01 01:19:00,59.0,54.0,30.12,South,191,2.0,4.0,82,0.00,,,0.00,weatherlink.com 1.10,2013-05-01 05:19:00,
2013-05-01 01:34:00,58.7,53.0,30.12,SSE,161,0.0,4.0,82,0.00,,,0.00,weatherlink.com 1.10,2013-05-01 05:34:00,
2013-05-01 01:49:00,58.1,53.0,30.12,South,189,0.0,2.0,84,0.00,,,0.00,weatherlink.com 1.10,2013-05-01 05:49:00,
2013-05-01 02:04:00,57.8,53.0,30.12,SSW,194,0.0,2.0,84,0.00,,,0.00,weatherlink.com 1.10,2013-05-01 06:04:00,
2013-05-01 02:19:00,57.6,53.0,30.12,SE,143,0.0,2.0,84,0.00,,,0.00,weatherlink.com 1.10,2013-05-01 06:19:00,
2013-05-01 02:34:00,57.2,53.0,30.13,East,85,0.0,2.0,86,0.00,,,0.00,weatherlink.com 1.10,2013-05-01 06:34:00,
2013-05-01 02:50:00,57.1,53.0,30.13,ESE,119,0.0,2.0,86,0.00,,,0.00,weatherlink.com 1.10,2013-05-01 06:50:00,
2013-05-01 03:05:00,56.8,53.0,30.13,ESE,119,1.0,1.0,86,0.00,,,0.00,weatherlink.com 1.10,2013-05-01 07:05:00,
2013-05-01 03:20:00,56.7,53.0,30.14,SSE,164,0.0,1.0,86,0.00,,,0.00,weatherlink.com 1.10,2013-05-01 07:20:00,
2013-05-01 03:35:00,56.6,53.0,30.14,SSE,164,0.0,1.0,86,0.00,,,0.00,weatherlink.com 1.10,2013-05-01 07:35:00,
2013-05-01 03:50:00,56.6,53.0,30.14,SSE,164,0.0,2.0,87,0.00,,,0.00,weatherlink.com 1.10,2013-05-01 07:50:00,
2013-05-01 04:05:00,55.7,52.0,30.15,SSE,164,0.0,1.0,87,0.00,,,0.00,weatherlink.com 1.10,2013-05-01 08:05:00,
2013-05-01 04:20:00,55.4,52.0,30.15,SSE,164,1.0,1.0,89,0.00,,,0.00,weatherlink.com 1.10,2013-05-01 08:20:00,
2013-05-01 04:35:00,55.3,52.0,30.15,SSE,163,1.0,2.0,89,0.00,,,0.00,weatherlink.com 1.10,2013-05-01 08:35:00,
2013-05-01 04:50:00,55.5,52.0,30.15,SSE,163,1.0,1.0,89,0.00,,,0.00,weatherlink.com 1.10,2013-05-01 08:50:00,
2013-05-01 05:05:00,55.8,52.0,30.16,SSE,163,0.0,2.0,88,0.00,,,0.00,weatherlink.com 1.10,2013-05-01 09:05:00,
2013-05-01 05:20:00,55.7,52.0,30.16,SSE,162,0.0,1.0,88,0.00,,,0.00,weatherlink.com 1.10,2013-05-01 09:20:00,
2013-05-01 05:35:00,55.8,52.0,30.17,SSE,162,0.0,2.0,88,0.00,,,0.00,weatherlink.com 1.10,2013-05-01 09:35:00,
2013-05-01 05:50:00,55.8,52.0,30.18,SSE,160,0.0,0.0,88,0.00,,,0.00,weatherlink.com 1.10,2013-05-01 09:50:00,
2013-05-01 06:05:00,55.5,52.0,30.18,SSE,160,0.0,1.0,89,0.00,,,0.00,weatherlink.com 1.10,2013-05-01 10:05:00,
2013-05-01 06:20:00,55.6,53.0,30.19,SSE,160,0.0,1.0,89,0.00,,,0.00,weatherlink.com 1.10,2013-05-01 10:20:00,
2013-05-01 06:35:00,55.3,52.0,30.20,SSE,160,0.0,1.0,89,0.00,,,0.00,weatherlink.com 1.10,2013-05-01 10:35:00,
2013-05-01 06:50:00,55.5,52.0,30.20,SSE,160,0.0,2.0,89,0.00,,,0.00,weatherlink.com 1.10,2013-05-01 10:50:00,
2013-05-01 07:05:00,55.4,52.0,30.21,SSE,160,0.0,1.0,89,0.00,,,0.00,weatherlink.com 1.10,2013-05-01 11:05:00,
2013-05-01 07:20:00,55.5,53.0,30.22,SSE,160,0.0,2.0,90,0.00,,,0.00,weatherlink.com 1.10,2013-05-01 11:20:00,
2013-05-01 07:35:00,56.2,53.0,30.22,East,99,1.0,3.0,89,0.00,,,0.00,weatherlink.com 1.10,2013-05-01 11:35:00,
2013-05-01 07:50:00,57.4,54.0,30.24,East,99,1.0,3.0,88,0.00,,,0.00,weatherlink.com 1.10,2013-05-01 11:50:00,
2013-05-01 08:05:00,58.7,54.0,30.24,SE,133,1.0,3.0,85,0.00,,,0.00,weatherlink.com 1.10,2013-05-01 12:05:00,
2013-05-01 08:20:00,60.0,55.0,30.24,SSE,160,3.0,4.0,83,0.00,,,0.00,weatherlink.com 1.10,2013-05-01 12:20:00,
2013-05-01 08:35:00,61.3,56.0,30.24,SSE,155,2.0,4.0,82,0.00,,,0.00,weatherlink.com 1.10,2013-05-01 12:35:00,
2013-05-01 08:50:00,62.5,56.0,30.24,South,171,0.0,7.0,78,0.00,,,0.00,weatherlink.com 1.10,2013-05-01 12:50:00,
2013-05-01 09:05:00,63.9,56.0,30.24,East,93,1.0,7.0,75,0.00,,,0.00,weatherlink.com 1.10,2013-05-01 13:05:00,
2013-05-01 09:20:00,65.4,57.0,30.24,SE,129,2.0,4.0,74,0.00,,,0.00,weatherlink.com 1.10,2013-05-01 13:20:00,
2013-05-01 09:36:00,67.1,57.0,30.24,SSE,167,1.0,5.0,70,0.00,,,0.00,weatherlink.com 1.10,2013-05-01 13:36:00,
2013-05-01 09:51:00,68.1,57.0,30.24,SSE,149,1.0,5.0,68,0.00,,,0.00,weatherlink.com 1.10,2013-05-01 13:51:00,
2013-05-01 10:06:00,69.2,58.0,30.24,South,180,3.0,4.0,67,0.00,,,0.00,weatherlink.com 1.10,2013-05-01 14:06:00,
2013-05-01 10:21:00,70.4,58.0,30.24,SSE,158,1.0,5.0,65,0.00,,,0.00,weatherlink.com 1.10,2013-05-01 14:21:00,
2013-05-01 10:36:00,71.7,58.0,30.24,SSE,152,0.0,5.0,63,0.00,,,0.00,weatherlink.com 1.10,2013-05-01 14:36:00,
2013-05-01 10:51:00,71.9,59.0,30.24,SSE,147,2.0,7.0,63,0.00,,,0.00,weatherlink.com 1.10,2013-05-01 14:51:00,
2013-05-01 11:06:00,73.1,58.0,30.24,East,90,2.0,5.0,60,0.00,,,0.00,weatherlink.com 1.10,2013-05-01 15:06:00,
2013-05-01 11:21:00,73.3,59.0,30.24,South,190,3.0,5.0,61,0.00,,,0.00,weatherlink.com 1.10,2013-05-01 15:21:00,